Погода в Сан-Маркосе

Гватемала     14°56′59″N   91°48′41″W
темп.,
°C
ветер,
м/с
пор.,
м/с
влажн.,
%
обл.,
%
осадки,
мм/ч
давл.,
гПа
погр.,
м
12 августа, пт
пт1200:00+11св2293100 4.6 102034
03:00+11св229394 0.1 101826
06:00+10всв1190100 0.1 101910
09:00+16ю1172100 0.0 1019570
12:00+16ююз2289100 2.4 1018496
15:00+14ююз019197 7.4 1016219
18:00+12ююв1298100 17.5 1017101
21:00+12ююз11100100 5.1 1020153
13 августа, сб
сб1300:00+12св1297100 14.0 102061
03:00+11св2295100 5.1 101948
06:00+11ссв219298 5.8 101924
09:00+15юз117783 0.0 1019533
12:00+15ююз229096 1.6 1019500
15:00+13ю12100100 4.8 1016159
18:00+12с2497100 54.9 1018305
21:00+12св229594 1.2 102044
14 августа, вс
вс1400:00+10св3296100 1.2 102042
03:00+10св229576 0.0 101821
06:00+9всв229326 0.0 101919
09:00+16ююз217388 0.0 1018686
12:00+18ююз227584 1.5 10161060
15:00+17юз127372 2.4 10151031
18:00+13всв119297 4.8 101742
21:00+12св2294100 1.1 101934
15 августа, пн
пн1500:00+10св229532 1.2 101932
03:00+9св229423 0.1 101825
06:00+9всв229414 0.1 101831
09:00+16всв13705 0.1 1017782
12:00+17ююв1279100 2.8 1016888
15:00+15ююз1190100 3.3 1014143
18:00+13в1194100 7.9 101592
21:00+11св3394100 1.4 101847
16 августа, вт
вт1600:00+12св2395100 1.7 101869
03:00+11всв119390 0.6 101614
06:00+11всв1191100 0.9 101714
09:00+15ю1277100 0.3 1016682
12:00+15ююз1292100 3.4 1016371
15:00+13св1297100 8.8 1014219
18:00+12с1199100 46.8 1015102
21:00+12св2396100 10.3 101872